Year,Month,Day,Hour,Minute,Value (Times are PST for insolation in W/m^2)
2018,09,02,00,00,0.00
2018,09,02,00,01,0.00
2018,09,02,00,02,0.00
2018,09,02,00,03,0.00
2018,09,02,00,04,0.00
2018,09,02,00,05,0.00
2018,09,02,00,06,0.00
2018,09,02,00,07,0.00
2018,09,02,00,08,0.00
2018,09,02,00,09,0.00
2018,09,02,00,10,0.00
2018,09,02,00,11,0.00
2018,09,02,00,12,0.00
2018,09,02,00,13,0.00
2018,09,02,00,14,0.00
2018,09,02,00,15,0.00
2018,09,02,00,16,0.00
2018,09,02,00,17,0.00
2018,09,02,00,18,0.00
2018,09,02,00,19,0.00
2018,09,02,00,20,0.00
2018,09,02,00,21,0.00
2018,09,02,00,22,0.00
2018,09,02,00,23,0.00
2018,09,02,00,24,0.00
2018,09,02,00,25,0.00
2018,09,02,00,26,0.00
2018,09,02,00,27,0.00
2018,09,02,00,28,0.00
2018,09,02,00,29,0.00
2018,09,02,00,30,0.00
2018,09,02,00,31,0.00
2018,09,02,00,32,0.00
2018,09,02,00,33,0.00
2018,09,02,00,34,0.00
2018,09,02,00,35,0.00
2018,09,02,00,36,0.00
2018,09,02,00,37,0.00
2018,09,02,00,38,0.00
2018,09,02,00,39,0.00
2018,09,02,00,40,0.00
2018,09,02,00,41,0.00
2018,09,02,00,42,0.00
2018,09,02,00,43,0.00
2018,09,02,00,44,0.00
2018,09,02,00,45,0.00
2018,09,02,00,46,0.00
2018,09,02,00,47,0.00
2018,09,02,00,48,0.00
2018,09,02,00,49,0.00
2018,09,02,00,50,0.00
2018,09,02,00,51,0.00
2018,09,02,00,52,0.00
2018,09,02,00,53,0.00
2018,09,02,00,54,0.00
2018,09,02,00,55,0.00
2018,09,02,00,56,0.00
2018,09,02,00,57,0.00
2018,09,02,00,58,0.00
2018,09,02,00,59,0.00
2018,09,02,01,00,0.00
2018,09,02,01,01,0.00
2018,09,02,01,02,0.00
2018,09,02,01,03,0.00
2018,09,02,01,04,0.00
2018,09,02,01,05,0.00
2018,09,02,01,06,0.00
2018,09,02,01,07,0.00
2018,09,02,01,08,0.00
2018,09,02,01,09,0.00
2018,09,02,01,10,0.00
2018,09,02,01,11,0.00
2018,09,02,01,12,0.00
2018,09,02,01,13,0.00
2018,09,02,01,14,0.00
2018,09,02,01,15,0.00
2018,09,02,01,16,0.00
2018,09,02,01,17,0.00
2018,09,02,01,18,0.00
2018,09,02,01,19,0.00
2018,09,02,01,20,0.00
2018,09,02,01,21,0.00
2018,09,02,01,22,0.00
2018,09,02,01,23,0.00
2018,09,02,01,24,0.00
2018,09,02,01,25,0.00
2018,09,02,01,26,0.00
2018,09,02,01,27,0.00
2018,09,02,01,28,0.00
2018,09,02,01,29,0.00
2018,09,02,01,30,0.00
2018,09,02,01,31,0.00
2018,09,02,01,32,0.00
2018,09,02,01,33,0.00
2018,09,02,01,34,0.00
2018,09,02,01,35,0.00
2018,09,02,01,36,0.00
2018,09,02,01,37,0.00
2018,09,02,01,38,0.00
2018,09,02,01,39,0.00
2018,09,02,01,40,0.00
2018,09,02,01,41,0.00
2018,09,02,01,42,0.00
2018,09,02,01,43,0.00
2018,09,02,01,44,0.00
2018,09,02,01,45,0.00
2018,09,02,01,46,0.00
2018,09,02,01,47,0.00
2018,09,02,01,48,0.00
2018,09,02,01,49,0.00
2018,09,02,01,50,0.00
2018,09,02,01,51,0.00
2018,09,02,01,52,0.00
2018,09,02,01,53,0.00
2018,09,02,01,54,0.00
2018,09,02,01,55,0.00
2018,09,02,01,56,0.00
2018,09,02,01,57,0.00
2018,09,02,01,58,0.00
2018,09,02,01,59,0.00
2018,09,02,02,00,0.00
2018,09,02,02,01,0.00
2018,09,02,02,02,0.00
2018,09,02,02,03,0.00
2018,09,02,02,04,0.00
2018,09,02,02,05,0.00
2018,09,02,02,06,0.00
2018,09,02,02,07,0.00
2018,09,02,02,08,0.00
2018,09,02,02,09,0.00
2018,09,02,02,10,0.00
2018,09,02,02,11,0.00
2018,09,02,02,12,0.00
2018,09,02,02,13,0.00
2018,09,02,02,14,0.00
2018,09,02,02,15,0.00
2018,09,02,02,16,0.00
2018,09,02,02,17,0.00
2018,09,02,02,18,0.00
2018,09,02,02,19,0.00
2018,09,02,02,20,0.00
2018,09,02,02,21,0.00
2018,09,02,02,22,0.00
2018,09,02,02,23,0.00
2018,09,02,02,24,0.00
2018,09,02,02,25,0.00
2018,09,02,02,26,0.00
2018,09,02,02,27,0.00
2018,09,02,02,28,0.00
2018,09,02,02,29,0.00
2018,09,02,02,30,0.00
2018,09,02,02,31,0.00
2018,09,02,02,32,0.00
2018,09,02,02,33,0.00
2018,09,02,02,34,0.00
2018,09,02,02,35,0.00
2018,09,02,02,36,0.00
2018,09,02,02,37,0.00
2018,09,02,02,38,0.00
2018,09,02,02,39,0.00
2018,09,02,02,40,0.00
2018,09,02,02,41,0.00
2018,09,02,02,42,0.00
2018,09,02,02,43,0.00
2018,09,02,02,44,0.00
2018,09,02,02,45,0.00
2018,09,02,02,46,0.00
2018,09,02,02,47,0.00
2018,09,02,02,48,0.00
2018,09,02,02,49,0.00
2018,09,02,02,50,0.00
2018,09,02,02,51,0.00
2018,09,02,02,52,0.00
2018,09,02,02,53,0.00
2018,09,02,02,54,0.00
2018,09,02,02,55,0.00
2018,09,02,02,56,0.00
2018,09,02,02,57,0.00
2018,09,02,02,58,0.00
2018,09,02,02,59,0.00
2018,09,02,03,00,0.00
2018,09,02,03,01,0.00
2018,09,02,03,02,0.00
2018,09,02,03,03,0.00
2018,09,02,03,04,0.00
2018,09,02,03,05,0.00
2018,09,02,03,06,0.00
2018,09,02,03,07,0.00
2018,09,02,03,08,0.00
2018,09,02,03,09,0.00
2018,09,02,03,10,0.00
2018,09,02,03,11,0.00
2018,09,02,03,12,0.00
2018,09,02,03,13,0.00
2018,09,02,03,14,0.00
2018,09,02,03,15,0.00
2018,09,02,03,16,0.00
2018,09,02,03,17,0.00
2018,09,02,03,18,0.00
2018,09,02,03,19,0.00
2018,09,02,03,20,0.00
2018,09,02,03,21,0.00
2018,09,02,03,22,0.00
2018,09,02,03,23,0.00
2018,09,02,03,24,0.00
2018,09,02,03,25,0.00
2018,09,02,03,26,0.00
2018,09,02,03,27,0.00
2018,09,02,03,28,0.00
2018,09,02,03,29,0.00
2018,09,02,03,30,0.00
2018,09,02,03,31,0.00
2018,09,02,03,32,0.00
2018,09,02,03,33,0.00
2018,09,02,03,34,0.00
2018,09,02,03,35,0.00
2018,09,02,03,36,0.00
2018,09,02,03,37,0.00
2018,09,02,03,38,0.00
2018,09,02,03,39,0.00
2018,09,02,03,40,0.00
2018,09,02,03,41,0.00
2018,09,02,03,42,0.00
2018,09,02,03,43,0.00
2018,09,02,03,44,0.00
2018,09,02,03,45,0.00
2018,09,02,03,46,0.00
2018,09,02,03,47,0.00
2018,09,02,03,48,0.00
2018,09,02,03,49,0.00
2018,09,02,03,50,0.00
2018,09,02,03,51,0.00
2018,09,02,03,52,0.00
2018,09,02,03,53,0.00
2018,09,02,03,54,0.00
2018,09,02,03,55,0.00
2018,09,02,03,56,0.00
2018,09,02,03,57,0.00
2018,09,02,03,58,0.00
2018,09,02,03,59,0.00
2018,09,02,04,00,0.00
2018,09,02,04,01,0.00
2018,09,02,04,02,0.00
2018,09,02,04,03,0.00
2018,09,02,04,04,0.00
2018,09,02,04,05,0.00
2018,09,02,04,06,0.00
2018,09,02,04,07,0.00
2018,09,02,04,08,0.00
2018,09,02,04,09,0.00
2018,09,02,04,10,0.00
2018,09,02,04,11,0.00
2018,09,02,04,12,0.00
2018,09,02,04,13,0.00
2018,09,02,04,14,0.00
2018,09,02,04,15,0.00
2018,09,02,04,16,0.00
2018,09,02,04,17,0.00
2018,09,02,04,18,0.00
2018,09,02,04,19,0.00
2018,09,02,04,20,0.00
2018,09,02,04,21,0.00
2018,09,02,04,22,0.00
2018,09,02,04,23,0.00
2018,09,02,04,24,0.00
2018,09,02,04,25,0.00
2018,09,02,04,26,0.00
2018,09,02,04,27,0.00
2018,09,02,04,28,0.00
2018,09,02,04,29,0.00
2018,09,02,04,30,0.00
2018,09,02,04,31,0.00
2018,09,02,04,32,0.00
2018,09,02,04,33,0.00
2018,09,02,04,34,0.00
2018,09,02,04,35,0.00
2018,09,02,04,36,0.00
2018,09,02,04,37,0.00
2018,09,02,04,38,0.00
2018,09,02,04,39,0.00
2018,09,02,04,40,0.00
2018,09,02,04,41,0.00
2018,09,02,04,42,0.00
2018,09,02,04,43,0.00
2018,09,02,04,44,0.00
2018,09,02,04,45,0.00
2018,09,02,04,46,0.00
2018,09,02,04,47,0.00
2018,09,02,04,48,0.00
2018,09,02,04,49,0.00
2018,09,02,04,50,0.00
2018,09,02,04,51,0.00
2018,09,02,04,52,0.00
2018,09,02,04,53,0.00
2018,09,02,04,54,0.00
2018,09,02,04,55,0.00
2018,09,02,04,56,0.00
2018,09,02,04,57,0.00
2018,09,02,04,58,0.00
2018,09,02,04,59,0.00
2018,09,02,05,00,0.00
2018,09,02,05,01,0.00
2018,09,02,05,02,0.00
2018,09,02,05,03,0.00
2018,09,02,05,04,0.00
2018,09,02,05,05,0.00
2018,09,02,05,06,0.00
2018,09,02,05,07,0.00
2018,09,02,05,08,0.00
2018,09,02,05,09,0.00
2018,09,02,05,10,0.00
2018,09,02,05,11,0.00
2018,09,02,05,12,0.00
2018,09,02,05,13,0.00
2018,09,02,05,14,0.00
2018,09,02,05,15,0.00
2018,09,02,05,16,0.00
2018,09,02,05,17,0.00
2018,09,02,05,18,0.00
2018,09,02,05,19,0.00
2018,09,02,05,20,0.00
2018,09,02,05,21,0.00
2018,09,02,05,22,0.00
2018,09,02,05,23,0.00
2018,09,02,05,24,0.00
2018,09,02,05,25,0.00
2018,09,02,05,26,0.00
2018,09,02,05,27,0.00
2018,09,02,05,28,0.00
2018,09,02,05,29,0.00
2018,09,02,05,30,0.00
2018,09,02,05,31,0.00
2018,09,02,05,32,0.00
2018,09,02,05,33,0.00
2018,09,02,05,34,0.00
2018,09,02,05,35,0.00
2018,09,02,05,36,0.00
2018,09,02,05,37,0.00
2018,09,02,05,38,0.00
2018,09,02,05,39,0.00
2018,09,02,05,40,0.00
2018,09,02,05,41,0.00
2018,09,02,05,42,0.00
2018,09,02,05,43,0.00
2018,09,02,05,44,0.00
2018,09,02,05,45,0.00
2018,09,02,05,46,0.00
2018,09,02,05,47,0.00
2018,09,02,05,48,0.00
2018,09,02,05,49,0.00
2018,09,02,05,50,0.00
2018,09,02,05,51,0.00
2018,09,02,05,52,0.00
2018,09,02,05,53,0.00
2018,09,02,05,54,0.00
2018,09,02,05,55,0.00
2018,09,02,05,56,0.00
2018,09,02,05,57,0.00
2018,09,02,05,58,0.00
2018,09,02,05,59,0.00
2018,09,02,06,00,0.00
2018,09,02,06,01,0.00
2018,09,02,06,02,0.00
2018,09,02,06,03,0.00
2018,09,02,06,04,0.00
2018,09,02,06,05,0.00
2018,09,02,06,06,0.00
2018,09,02,06,07,0.00
2018,09,02,06,08,0.00
2018,09,02,06,09,0.00
2018,09,02,06,10,0.00
2018,09,02,06,11,0.00
2018,09,02,06,12,0.00
2018,09,02,06,13,0.00
2018,09,02,06,14,0.00
2018,09,02,06,15,0.00
2018,09,02,06,16,0.00
2018,09,02,06,17,0.00
2018,09,02,06,18,0.00
2018,09,02,06,19,0.00
2018,09,02,06,20,0.00
2018,09,02,06,21,0.00
2018,09,02,06,22,0.00
2018,09,02,06,23,0.00
2018,09,02,06,24,0.00
2018,09,02,06,25,0.00
2018,09,02,06,26,0.00
2018,09,02,06,27,0.00
2018,09,02,06,28,0.00
2018,09,02,06,29,0.00
2018,09,02,06,30,0.00
2018,09,02,06,31,0.00
2018,09,02,06,32,0.00
2018,09,02,06,33,0.00
2018,09,02,06,34,0.00
2018,09,02,06,35,0.00
2018,09,02,06,36,0.00
2018,09,02,06,37,0.00
2018,09,02,06,38,0.00
2018,09,02,06,39,3.70
2018,09,02,06,40,5.00
2018,09,02,06,41,5.00
2018,09,02,06,42,5.00
2018,09,02,06,43,5.10
2018,09,02,06,44,7.00
2018,09,02,06,45,7.00
2018,09,02,06,46,7.00
2018,09,02,06,47,7.60
2018,09,02,06,48,9.00
2018,09,02,06,49,9.00
2018,09,02,06,50,10.00
2018,09,02,06,51,11.00
2018,09,02,06,52,11.00
2018,09,02,06,53,11.00
2018,09,02,06,54,11.00
2018,09,02,06,55,11.80
2018,09,02,06,56,12.00
2018,09,02,06,57,12.00
2018,09,02,06,58,14.00
2018,09,02,06,59,14.00
2018,09,02,07,00,14.00
2018,09,02,07,01,14.00
2018,09,02,07,02,14.60
2018,09,02,07,03,16.00
2018,09,02,07,04,16.00
2018,09,02,07,05,16.00
2018,09,02,07,06,16.00
2018,09,02,07,07,17.30
2018,09,02,07,08,18.00
2018,09,02,07,09,18.00
2018,09,02,07,10,18.00
2018,09,02,07,11,18.90
2018,09,02,07,12,19.00
2018,09,02,07,13,19.00
2018,09,02,07,14,19.20
2018,09,02,07,15,21.00
2018,09,02,07,16,21.00
2018,09,02,07,17,21.60
2018,09,02,07,18,23.00
2018,09,02,07,19,23.90
2018,09,02,07,20,25.00
2018,09,02,07,21,25.50
2018,09,02,07,22,27.20
2018,09,02,07,23,30.70
2018,09,02,07,24,41.00
2018,09,02,07,25,56.80
2018,09,02,07,26,74.30
2018,09,02,07,27,82.30
2018,09,02,07,28,86.40
2018,09,02,07,29,90.50
2018,09,02,07,30,96.00
2018,09,02,07,31,101.30
2018,09,02,07,32,107.40
2018,09,02,07,33,115.40
2018,09,02,07,34,123.60
2018,09,02,07,35,133.80
2018,09,02,07,36,142.90
2018,09,02,07,37,151.90
2018,09,02,07,38,159.80
2018,09,02,07,39,165.80
2018,09,02,07,40,170.40
2018,09,02,07,41,171.00
2018,09,02,07,42,120.80
2018,09,02,07,43,112.50
2018,09,02,07,44,102.10
2018,09,02,07,45,128.20
2018,09,02,07,46,139.20
2018,09,02,07,47,136.20
2018,09,02,07,48,132.20
2018,09,02,07,49,117.60
2018,09,02,07,50,126.00
2018,09,02,07,51,124.30
2018,09,02,07,52,119.30
2018,09,02,07,53,123.30
2018,09,02,07,54,125.00
2018,09,02,07,55,138.50
2018,09,02,07,56,135.90
2018,09,02,07,57,143.50
2018,09,02,07,58,141.90
2018,09,02,07,59,138.40
2018,09,02,08,00,134.40
2018,09,02,08,01,130.90
2018,09,02,08,02,126.50
2018,09,02,08,03,119.00
2018,09,02,08,04,110.50
2018,09,02,08,05,105.50
2018,09,02,08,06,102.90
2018,09,02,08,07,100.80
2018,09,02,08,08,98.70
2018,09,02,08,09,97.20
2018,09,02,08,10,93.60
2018,09,02,08,11,90.40
2018,09,02,08,12,89.60
2018,09,02,08,13,80.70
2018,09,02,08,14,75.60
2018,09,02,08,15,72.00
2018,09,02,08,16,72.50
2018,09,02,08,17,81.30
2018,09,02,08,18,95.60
2018,09,02,08,19,129.20
2018,09,02,08,20,135.00
2018,09,02,08,21,91.00
2018,09,02,08,22,114.40
2018,09,02,08,23,130.00
2018,09,02,08,24,236.50
2018,09,02,08,25,272.00
2018,09,02,08,26,273.80
2018,09,02,08,27,282.10
2018,09,02,08,28,189.20
2018,09,02,08,29,139.40
2018,09,02,08,30,160.00
2018,09,02,08,31,192.00
2018,09,02,08,32,287.70
2018,09,02,08,33,287.00
2018,09,02,08,34,287.50
2018,09,02,08,35,289.00
2018,09,02,08,36,291.10
2018,09,02,08,37,293.30
2018,09,02,08,38,294.60
2018,09,02,08,39,296.40
2018,09,02,08,40,298.60
2018,09,02,08,41,300.70
2018,09,02,08,42,301.90
2018,09,02,08,43,304.10
2018,09,02,08,44,306.50
2018,09,02,08,45,309.40
2018,09,02,08,46,311.50
2018,09,02,08,47,313.90
2018,09,02,08,48,316.80
2018,09,02,08,49,319.70
2018,09,02,08,50,322.50
2018,09,02,08,51,324.20
2018,09,02,08,52,327.40
2018,09,02,08,53,331.10
2018,09,02,08,54,333.60
2018,09,02,08,55,335.60
2018,09,02,08,56,338.50
2018,09,02,08,57,340.90
2018,09,02,08,58,343.10
2018,09,02,08,59,346.40
2018,09,02,09,00,350.60
2018,09,02,09,01,353.50
2018,09,02,09,02,356.20
2018,09,02,09,03,359.40
2018,09,02,09,04,361.70
2018,09,02,09,05,365.50
2018,09,02,09,06,368.10
2018,09,02,09,07,370.30
2018,09,02,09,08,373.10
2018,09,02,09,09,377.00
2018,09,02,09,10,380.40
2018,09,02,09,11,382.70
2018,09,02,09,12,386.80
2018,09,02,09,13,388.20
2018,09,02,09,14,392.30
2018,09,02,09,15,394.50
2018,09,02,09,16,397.50
2018,09,02,09,17,400.20
2018,09,02,09,18,403.40
2018,09,02,09,19,405.80
2018,09,02,09,20,409.00
2018,09,02,09,21,411.60
2018,09,02,09,22,414.30
2018,09,02,09,23,416.40
2018,09,02,09,24,419.20
2018,09,02,09,25,421.60
2018,09,02,09,26,423.70
2018,09,02,09,27,426.80
2018,09,02,09,28,429.10
2018,09,02,09,29,431.40
2018,09,02,09,30,434.40
2018,09,02,09,31,436.80
2018,09,02,09,32,439.60
2018,09,02,09,33,442.50
2018,09,02,09,34,445.50
2018,09,02,09,35,448.00
2018,09,02,09,36,451.20
2018,09,02,09,37,453.80
2018,09,02,09,38,456.40
2018,09,02,09,39,460.00
2018,09,02,09,40,463.40
2018,09,02,09,41,465.80
2018,09,02,09,42,470.50
2018,09,02,09,43,475.10
2018,09,02,09,44,478.30
2018,09,02,09,45,480.50
2018,09,02,09,46,484.00
2018,09,02,09,47,487.00
2018,09,02,09,48,490.60
2018,09,02,09,49,496.40
2018,09,02,09,50,498.00
2018,09,02,09,51,501.20
2018,09,02,09,52,503.60
2018,09,02,09,53,505.40
2018,09,02,09,54,507.50
2018,09,02,09,55,511.20
2018,09,02,09,56,512.80
2018,09,02,09,57,516.80
2018,09,02,09,58,515.20
2018,09,02,09,59,519.00
2018,09,02,10,00,519.20
2018,09,02,10,01,520.50
2018,09,02,10,02,522.00
2018,09,02,10,03,522.80
2018,09,02,10,04,524.00
2018,09,02,10,05,524.00
2018,09,02,10,06,525.70
2018,09,02,10,07,527.00
2018,09,02,10,08,529.60
2018,09,02,10,09,531.00
2018,09,02,10,10,533.40
2018,09,02,10,11,535.70
2018,09,02,10,12,537.80
2018,09,02,10,13,540.30
2018,09,02,10,14,543.20
2018,09,02,10,15,545.40
2018,09,02,10,16,547.20
2018,09,02,10,17,548.60
2018,09,02,10,18,550.00
2018,09,02,10,19,551.70
2018,09,02,10,20,555.50
2018,09,02,10,21,557.00
2018,09,02,10,22,559.40
2018,09,02,10,23,561.00
2018,09,02,10,24,563.20
2018,09,02,10,25,565.60
2018,09,02,10,26,567.70
2018,09,02,10,27,569.80
2018,09,02,10,28,571.10
2018,09,02,10,29,573.20
2018,09,02,10,30,575.50
2018,09,02,10,31,578.50
2018,09,02,10,32,580.60
2018,09,02,10,33,583.20
2018,09,02,10,34,585.80
2018,09,02,10,35,588.00
2018,09,02,10,36,590.20
2018,09,02,10,37,591.60
2018,09,02,10,38,593.40
2018,09,02,10,39,595.50
2018,09,02,10,40,598.50
2018,09,02,10,41,600.70
2018,09,02,10,42,602.90
2018,09,02,10,43,605.00
2018,09,02,10,44,606.00
2018,09,02,10,45,606.30
2018,09,02,10,46,608.00
2018,09,02,10,47,609.70
2018,09,02,10,48,613.70
2018,09,02,10,49,615.90
2018,09,02,10,50,618.00
2018,09,02,10,51,620.10
2018,09,02,10,52,621.60
2018,09,02,10,53,623.40
2018,09,02,10,54,627.00
2018,09,02,10,55,628.80
2018,09,02,10,56,630.80
2018,09,02,10,57,632.90
2018,09,02,10,58,635.00
2018,09,02,10,59,636.00
2018,09,02,11,00,636.30
2018,09,02,11,01,639.00
2018,09,02,11,02,642.30
2018,09,02,11,03,643.00
2018,09,02,11,04,643.80
2018,09,02,11,05,646.00
2018,09,02,11,06,647.00
2018,09,02,11,07,648.90
2018,09,02,11,08,652.70
2018,09,02,11,09,654.00
2018,09,02,11,10,656.40
2018,09,02,11,11,657.00
2018,09,02,11,12,658.90
2018,09,02,11,13,661.10
2018,09,02,11,14,663.20
2018,09,02,11,15,664.40
2018,09,02,11,16,666.50
2018,09,02,11,17,668.00
2018,09,02,11,18,668.80
2018,09,02,11,19,670.00
2018,09,02,11,20,672.60
2018,09,02,11,21,675.00
2018,09,02,11,22,676.20
2018,09,02,11,23,678.40
2018,09,02,11,24,681.20
2018,09,02,11,25,682.00
2018,09,02,11,26,683.80
2018,09,02,11,27,686.80
2018,09,02,11,28,689.00
2018,09,02,11,29,689.30
2018,09,02,11,30,691.00
2018,09,02,11,31,691.80
2018,09,02,11,32,694.00
2018,09,02,11,33,694.00
2018,09,02,11,34,695.70
2018,09,02,11,35,699.40
2018,09,02,11,36,700.50
2018,09,02,11,37,700.60
2018,09,02,11,38,701.00
2018,09,02,11,39,702.50
2018,09,02,11,40,703.00
2018,09,02,11,41,706.60
2018,09,02,11,42,707.90
2018,09,02,11,43,708.10
2018,09,02,11,44,710.20
2018,09,02,11,45,712.30
2018,09,02,11,46,714.20
2018,09,02,11,47,715.00
2018,09,02,11,48,716.40
2018,09,02,11,49,718.20
2018,09,02,11,50,718.00
2018,09,02,11,51,720.10
2018,09,02,11,52,721.00
2018,09,02,11,53,721.70
2018,09,02,11,54,722.00
2018,09,02,11,55,725.20
2018,09,02,11,56,727.70
2018,09,02,11,57,728.90
2018,09,02,11,58,726.10
2018,09,02,11,59,728.80
2018,09,02,12,00,728.50
2018,09,02,12,01,731.00
2018,09,02,12,02,732.30
2018,09,02,12,03,734.30
2018,09,02,12,04,733.90
2018,09,02,12,05,736.10
2018,09,02,12,06,737.50
2018,09,02,12,07,738.00
2018,09,02,12,08,738.00
2018,09,02,12,09,737.20
2018,09,02,12,10,737.00
2018,09,02,12,11,737.80
2018,09,02,12,12,741.80
2018,09,02,12,13,738.30
2018,09,02,12,14,744.80
2018,09,02,12,15,744.50
2018,09,02,12,16,747.00
2018,09,02,12,17,747.00
2018,09,02,12,18,747.00
2018,09,02,12,19,747.90
2018,09,02,12,20,748.00
2018,09,02,12,21,748.20
2018,09,02,12,22,750.20
2018,09,02,12,23,749.60
2018,09,02,12,24,751.20
2018,09,02,12,25,753.60
2018,09,02,12,26,754.00
2018,09,02,12,27,755.90
2018,09,02,12,28,757.90
2018,09,02,12,29,756.00
2018,09,02,12,30,756.40
2018,09,02,12,31,758.00
2018,09,02,12,32,758.30
2018,09,02,12,33,759.00
2018,09,02,12,34,759.00
2018,09,02,12,35,759.00
2018,09,02,12,36,760.10
2018,09,02,12,37,761.00
2018,09,02,12,38,762.40
2018,09,02,12,39,761.50
2018,09,02,12,40,761.00
2018,09,02,12,41,761.00
2018,09,02,12,42,762.90
2018,09,02,12,43,765.00
2018,09,02,12,44,764.80
2018,09,02,12,45,763.00
2018,09,02,12,46,763.50
2018,09,02,12,47,765.30
2018,09,02,12,48,767.40
2018,09,02,12,49,769.10
2018,09,02,12,50,768.00
2018,09,02,12,51,768.00
2018,09,02,12,52,766.70
2018,09,02,12,53,768.80
2018,09,02,12,54,770.00
2018,09,02,12,55,772.40
2018,09,02,12,56,770.40
2018,09,02,12,57,768.10
2018,09,02,12,58,772.00
2018,09,02,12,59,773.00
2018,09,02,13,00,773.00
2018,09,02,13,01,773.50
2018,09,02,13,02,775.00
2018,09,02,13,03,775.00
2018,09,02,13,04,773.70
2018,09,02,13,05,772.00
2018,09,02,13,06,773.70
2018,09,02,13,07,773.80
2018,09,02,13,08,774.40
2018,09,02,13,09,775.00
2018,09,02,13,10,773.40
2018,09,02,13,11,774.80
2018,09,02,13,12,776.90
2018,09,02,13,13,776.90
2018,09,02,13,14,775.00
2018,09,02,13,15,775.30
2018,09,02,13,16,777.50
2018,09,02,13,17,777.80
2018,09,02,13,18,775.80
2018,09,02,13,19,777.00
2018,09,02,13,20,776.00
2018,09,02,13,21,775.00
2018,09,02,13,22,775.00
2018,09,02,13,23,775.00
2018,09,02,13,24,776.50
2018,09,02,13,25,777.00
2018,09,02,13,26,777.00
2018,09,02,13,27,777.00
2018,09,02,13,28,777.10
2018,09,02,13,29,778.80
2018,09,02,13,30,777.30
2018,09,02,13,31,778.00
2018,09,02,13,32,775.00
2018,09,02,13,33,773.80
2018,09,02,13,34,772.50
2018,09,02,13,35,773.00
2018,09,02,13,36,773.00
2018,09,02,13,37,774.20
2018,09,02,13,38,773.60
2018,09,02,13,39,773.00
2018,09,02,13,40,773.00
2018,09,02,13,41,773.00
2018,09,02,13,42,773.00
2018,09,02,13,43,772.10
2018,09,02,13,44,772.90
2018,09,02,13,45,772.00
2018,09,02,13,46,772.00
2018,09,02,13,47,770.80
2018,09,02,13,48,768.70
2018,09,02,13,49,770.00
2018,09,02,13,50,770.00
2018,09,02,13,51,768.80
2018,09,02,13,52,768.00
2018,09,02,13,53,768.00
2018,09,02,13,54,766.50
2018,09,02,13,55,769.20
2018,09,02,13,56,770.00
2018,09,02,13,57,768.10
2018,09,02,13,58,770.20
2018,09,02,13,59,772.00
2018,09,02,14,00,772.60
2018,09,02,14,01,775.00
2018,09,02,14,02,775.70
2018,09,02,14,03,777.70
2018,09,02,14,04,780.30
2018,09,02,14,05,783.90
2018,09,02,14,06,791.50
2018,09,02,14,07,801.40
2018,09,02,14,08,812.70
2018,09,02,14,09,824.80
2018,09,02,14,10,839.20
2018,09,02,14,11,822.50
2018,09,02,14,12,827.50
2018,09,02,14,13,771.30
2018,09,02,14,14,741.40
2018,09,02,14,15,736.40
2018,09,02,14,16,679.90
2018,09,02,14,17,714.20
2018,09,02,14,18,680.90
2018,09,02,14,19,647.10
2018,09,02,14,20,650.00
2018,09,02,14,21,650.00
2018,09,02,14,22,741.80
2018,09,02,14,23,736.50
2018,09,02,14,24,668.20
2018,09,02,14,25,654.00
2018,09,02,14,26,688.00
2018,09,02,14,27,642.70
2018,09,02,14,28,681.70
2018,09,02,14,29,665.20
2018,09,02,14,30,622.20
2018,09,02,14,31,680.80
2018,09,02,14,32,725.30
2018,09,02,14,33,754.20
2018,09,02,14,34,757.20
2018,09,02,14,35,737.50
2018,09,02,14,36,688.10
2018,09,02,14,37,716.00
2018,09,02,14,38,751.30
2018,09,02,14,39,771.00
2018,09,02,14,40,751.30
2018,09,02,14,41,722.90
2018,09,02,14,42,750.30
2018,09,02,14,43,751.00
2018,09,02,14,44,740.80
2018,09,02,14,45,730.00
2018,09,02,14,46,724.90
2018,09,02,14,47,721.10
2018,09,02,14,48,719.00
2018,09,02,14,49,717.20
2018,09,02,14,50,713.50
2018,09,02,14,51,710.80
2018,09,02,14,52,708.70
2018,09,02,14,53,707.30
2018,09,02,14,54,705.50
2018,09,02,14,55,705.00
2018,09,02,14,56,703.20
2018,09,02,14,57,700.30
2018,09,02,14,58,697.80
2018,09,02,14,59,696.20
2018,09,02,15,00,697.00
2018,09,02,15,01,693.00
2018,09,02,15,02,693.00
2018,09,02,15,03,693.30
2018,09,02,15,04,692.70
2018,09,02,15,05,689.00
2018,09,02,15,06,687.00
2018,09,02,15,07,686.30
2018,09,02,15,08,683.30
2018,09,02,15,09,683.50
2018,09,02,15,10,680.10
2018,09,02,15,11,679.00
2018,09,02,15,12,677.10
2018,09,02,15,13,676.80
2018,09,02,15,14,673.30
2018,09,02,15,15,674.00
2018,09,02,15,16,669.50
2018,09,02,15,17,668.70
2018,09,02,15,18,668.40
2018,09,02,15,19,665.20
2018,09,02,15,20,662.50
2018,09,02,15,21,663.80
2018,09,02,15,22,666.00
2018,09,02,15,23,662.70
2018,09,02,15,24,659.50
2018,09,02,15,25,657.40
2018,09,02,15,26,657.00
2018,09,02,15,27,656.00
2018,09,02,15,28,653.80
2018,09,02,15,29,650.00
2018,09,02,15,30,650.00
2018,09,02,15,31,649.20
2018,09,02,15,32,648.00
2018,09,02,15,33,649.60
2018,09,02,15,34,649.50
2018,09,02,15,35,649.50
2018,09,02,15,36,647.80
2018,09,02,15,37,644.50
2018,09,02,15,38,643.00
2018,09,02,15,39,644.50
2018,09,02,15,40,643.40
2018,09,02,15,41,642.20
2018,09,02,15,42,640.10
2018,09,02,15,43,647.30
2018,09,02,15,44,652.00
2018,09,02,15,45,660.20
2018,09,02,15,46,649.00
2018,09,02,15,47,599.80
2018,09,02,15,48,465.40
2018,09,02,15,49,441.00
2018,09,02,15,50,496.50
2018,09,02,15,51,479.00
2018,09,02,15,52,436.50
2018,09,02,15,53,391.10
2018,09,02,15,54,371.00
2018,09,02,15,55,371.00
2018,09,02,15,56,371.00
2018,09,02,15,57,371.00
2018,09,02,15,58,649.60
2018,09,02,15,59,643.00
2018,09,02,16,00,630.80
2018,09,02,16,01,566.00
2018,09,02,16,02,580.00
2018,09,02,16,03,604.80
2018,09,02,16,04,600.80
2018,09,02,16,05,594.70
2018,09,02,16,06,588.90
2018,09,02,16,07,588.30
2018,09,02,16,08,585.40
2018,09,02,16,09,581.00
2018,09,02,16,10,576.00
2018,09,02,16,11,571.40
2018,09,02,16,12,570.00
2018,09,02,16,13,567.80
2018,09,02,16,14,563.20
2018,09,02,16,15,558.20
2018,09,02,16,16,554.70
2018,09,02,16,17,554.00
2018,09,02,16,18,551.80
2018,09,02,16,19,547.60
2018,09,02,16,20,545.00
2018,09,02,16,21,541.20
2018,09,02,16,22,537.40
2018,09,02,16,23,537.40
2018,09,02,16,24,535.00
2018,09,02,16,25,534.00
2018,09,02,16,26,529.50
2018,09,02,16,27,527.10
2018,09,02,16,28,522.00
2018,09,02,16,29,522.00
2018,09,02,16,30,521.70
2018,09,02,16,31,519.80
2018,09,02,16,32,517.20
2018,09,02,16,33,512.60
2018,09,02,16,34,512.00
2018,09,02,16,35,511.00
2018,09,02,16,36,507.90
2018,09,02,16,37,504.20
2018,09,02,16,38,500.20
2018,09,02,16,39,499.00
2018,09,02,16,40,499.00
2018,09,02,16,41,497.30
2018,09,02,16,42,492.50
2018,09,02,16,43,488.80
2018,09,02,16,44,486.70
2018,09,02,16,45,484.60
2018,09,02,16,46,483.00
2018,09,02,16,47,481.50
2018,09,02,16,48,475.20
2018,09,02,16,49,470.20
2018,09,02,16,50,469.00
2018,09,02,16,51,467.40
2018,09,02,16,52,464.70
2018,09,02,16,53,461.90
2018,09,02,16,54,461.00
2018,09,02,16,55,459.40
2018,09,02,16,56,457.30
2018,09,02,16,57,452.30
2018,09,02,16,58,451.80
2018,09,02,16,59,448.00
2018,09,02,17,00,447.00
2018,09,02,17,01,442.50
2018,09,02,17,02,439.40
2018,09,02,17,03,435.30
2018,09,02,17,04,434.00
2018,09,02,17,05,431.50
2018,09,02,17,06,427.80
2018,09,02,17,07,425.80
2018,09,02,17,08,422.90
2018,09,02,17,09,420.50
2018,09,02,17,10,420.00
2018,09,02,17,11,418.20
2018,09,02,17,12,415.30